Flag for U.S.A. Weather past 2 weeks in Lakewood, Colorado, U.S.A.

20 °F


Feels Like: 15 °F
Forecast: 14 / 29 °F
Wind: 3 mph from North

Location: Centennial Airport

Current Time: Nov 29, 2015 at 12:54:47 AM

Latest Report: Nov 28, 2015 at 11:53 PM

Visibility: 7 mi

Pressure: 30.27 "Hg (24.39 "Hg at 1683m altitude)

Humidity: 85%

Dew point: 16 °F

Location of LakewoodLocation

Historic Weather in Lakewood — Graph


Lakewood temperature yesterday

Maximum temperature yesterday: 21 °F (at 1:53 PM)
Minimum temperature yesterday: 14 °F (at 6:53 AM)
Average temperature yesterday: 19 °F

Past Weeks' High & Low Weather Summary

High63 °F (Nov 14, 1:53 PM)100% (Nov 16, 3:53 PM)30.64 "Hg (Nov 16, 3:53 PM)
Low5 °F (Nov 27, 6:53 AM)11% (Nov 15, 1:53 PM)29.37 "Hg (Nov 16, 11:53 AM)
Average33 °F60%30.02 "Hg
* Reported Nov 13 11:53 PM — Nov 28 11:53 PM, Lakewood, Weather by CustomWeather, © 2015

Note: Actual official high and low records may vary slightly from our data, if they occured in-between our weather recording intervals... More about our weather records


Lakewood weather history for previous 24 hours

Time TempWeatherWind HumidityBarometerVisibility
11:53 PM
Sat, Nov 28
20 °FOvercast.3 mph85%30.27 "Hg7 mi
10:53 PM20 °FOvercast.5 mph85%30.29 "Hg7 mi
9:53 PM20 °FOvercast.No wind85%30.31 "Hg8 mi
8:53 PM20 °FOvercast.No wind85%30.32 "Hg7 mi
7:53 PM20 °FOvercast.3 mph82%30.32 "Hg8 mi
6:53 PM20 °FOvercast.5 mph82%30.34 "Hg8 mi
5:53 PM21 °FOvercast.5 mph78%30.32 "Hg10 mi
3:53 PM21 °FOvercast.No wind71%30.29 "Hg10 mi
2:53 PM20 °FOvercast.No wind82%30.29 "Hg9 mi
1:53 PM21 °FOvercast.No wind78%30.28 "Hg10 mi
12:53 PM20 °FOvercast.No wind82%30.30 "Hg10 mi
11:53 AM20 °FLight snow. Overcast.No wind78%30.31 "Hg8 mi
10:53 AM19 °FLight snow. Overcast.6 mph81%30.34 "Hg7 mi
10:02 AM18 °FLight snow. Ice fog.6 mph84%30.14 "Hg3 mi
9:53 AM18 °FLight snow. Ice fog.7 mph88%30.34 "Hg2 mi
8:53 AM18 °FLight snow. Ice fog.7 mph84%30.32 "Hg3 mi
7:53 AM16 °FIce fog.3 mph87%30.32 "Hg6 mi
6:53 AM14 °FPartly cloudy.5 mph84%30.32 "Hg10 mi
5:53 AM16 °FLight snow. Ice fog.6 mph96%30.30 "Hg5 mi
4:53 AM17 °FLight snow. Ice fog.6 mph92%30.30 "Hg6 mi
3:53 AM17 °FLight snow. Ice fog.5 mph92%30.30 "Hg5 mi
2:53 AM17 °FLight snow. Ice fog.5 mph88%30.33 "Hg6 mi
1:53 AM17 °FLight snow. Ice fog.No wind88%30.35 "Hg4 mi
12:53 AM16 °FLight snow. Ice fog.3 mph92%30.36 "Hg7 mi
Weather by CustomWeather, © 2015

See weather overviewHow to use our weather pages